GLOBALSTAR M001 1 25162U 98008A 25340.85039236 -.00000036 00000+0 46353-3 0 9994 2 25162 52.0005 190.6690 0000258 259.2916 114.0333 12.38223322265107 GLOBALSTAR M004 1 25163U 98008B 25340.93996808 -.00000009 00000+0 52392-3 0 9991 2 25163 52.0003 247.1201 0003019 329.4664 111.2782 12.63410326283523 GLOBALSTAR M002 1 25164U 98008C 25340.79610260 -.00000061 00000+0 30173-3 0 9992 2 25164 51.9978 167.4148 0002687 95.3223 264.7904 11.61514475204123 GLOBALSTAR M003 1 25165U 98008D 25340.91131316 -.00000192 00000+0 -10992-2 0 9999 2 25165 51.9930 50.1280 0007581 279.9513 251.7147 12.12043975254160 GLOBALSTAR M014 1 25306U 98023A 25340.58316426 -.00000096 00000+0 -34173-3 0 9994 2 25306 51.9842 87.5448 0000199 13.4594 359.0544 11.65483824211273 GLOBALSTAR M006 1 25307U 98023B 25340.92495581 -.00000082 00000+0 -13738-3 0 9992 2 25307 51.9906 145.6116 0004210 72.1639 43.0906 11.58178775236843 GLOBALSTAR M015 1 25308U 98023C 25340.93412443 -.00000005 00000+0 15647-2 0 9994 2 25308 51.9823 251.9802 0013286 25.4386 55.0174 11.48862765213931 GLOBALSTAR M008 1 25309U 98023D 25340.56374003 -.00000072 00000+0 19215-3 0 9993 2 25309 51.9986 58.2852 0003095 169.8461 298.0798 12.36076573259167 GLOBALSTAR M023 1 25621U 99004A 25340.94962000 -.00000105 00000+0 -51046-5 0 9990 2 25621 52.0109 247.3726 0010131 144.7339 297.1080 12.62509636237552 GLOBALSTAR M040 1 25622U 99004B 25340.91179019 -.00000027 00000+0 43041-3 0 9994 2 25622 51.9917 251.8967 0001724 55.0433 22.9725 12.62024793237064 GLOBALSTAR M036 1 25623U 99004C 25340.91888234 -.00000090 00000+0 -10343-3 0 9991 2 25623 51.9940 145.0296 0010882 26.7111 140.5042 11.86618239199484 GLOBALSTAR M038 1 25624U 99004D 25340.90438895 -.00000062 00000+0 27224-3 0 9999 2 25624 51.9988 294.1618 0002360 51.1987 343.0481 12.32536941223673 GLOBALSTAR M022 1 25649U 99012A 25340.87376318 -.00000033 00000+0 65126-3 0 9993 2 25649 52.0011 181.4578 0003288 133.6685 239.9268 12.02507880197159 GLOBALSTAR M041 1 25650U 99012B 25340.70059874 -.00000070 00000+0 19319-3 0 9996 2 25650 52.0032 68.6369 0000539 301.3180 58.7604 11.96681311198930 GLOBALSTAR M046 1 25651U 99012C 25340.65219109 -.00000125 00000+0 -39609-3 0 9996 2 25651 52.0037 125.8973 0001500 206.1482 168.3330 12.09418469204534 GLOBALSTAR M037 1 25652U 99012D 25340.55817382 -.00000068 00000+0 20082-3 0 9993 2 25652 52.0026 19.1179 0002041 199.3998 325.0964 12.62457218233049 GLOBALSTAR M045 1 25676U 99019A 25340.86180053 -.00000058 00000+0 31519-3 0 9994 2 25676 51.9938 173.1066 0001086 98.9557 274.5099 12.27070265214594 GLOBALSTAR M019 1 25677U 99019B 25340.71667525 -.00000121 00000+0 -31984-3 0 9991 2 25677 51.9891 316.0279 0001407 323.7824 207.8316 12.13875922206095 GLOBALSTAR M044 1 25678U 99019C 25340.61261620 -.00000027 00000+0 78943-3 0 9997 2 25678 51.9984 289.2479 0006600 13.8048 157.4143 11.90260768191852 GLOBALSTAR M042 1 25679U 99019D 25340.58134565 -.00000035 00000+0 53837-3 0 9995 2 25679 52.0025 284.2773 0002873 307.2260 223.6216 12.22093115206330 GLOBALSTAR M025 1 25770U 99031A 25340.80746479 -.00000083 00000+0 -47736-3 0 9994 2 25770 51.9796 119.3809 0003108 83.9374 65.5617 11.22558753501091 GLOBALSTAR M049 1 25771U 99031B 25340.83142576 -.00000081 00000+0 -55592-3 0 9993 2 25771 51.9835 162.7668 0002098 328.3214 31.7456 11.12124403136637 GLOBALSTAR M047 1 25772U 99031C 25340.70218894 -.00000080 00000+0 -29790-3 0 9997 2 25772 51.9796 143.5455 0016219 194.6706 165.3630 11.31931816490642 GLOBALSTAR M052 1 25773U 99031D 25340.97748957 -.00000010 00000+0 18794-2 0 9998 2 25773 51.9872 268.6806 0003129 85.6090 356.8472 11.15062362497784 GLOBALSTAR M035 1 25851U 99037A 25340.91153359 -.00000028 00000+0 13531-2 0 9994 2 25851 51.9986 29.7712 0013491 260.2159 270.8722 11.04540584115346 GLOBALSTAR M032 1 25852U 99037B 25340.90482565 .00000061 00000+0 41020-2 0 9998 2 25852 51.9932 203.0720 0013625 95.4816 264.7538 11.19075385154125 GLOBALSTAR M051 1 25853U 99037C 25340.45452151 -.00000106 00000+0 -84904-3 0 9998 2 25853 51.9822 345.3166 0000186 143.0637 217.0187 11.42204625152077 GLOBALSTAR M030 1 25854U 99037D 25340.71989962 -.00000085 00000+0 -21790-3 0 9993 2 25854 51.9852 139.8089 0003273 19.0941 340.9998 11.55109866169980 GLOBALSTAR M048 1 25872U 99041A 25340.91812494 -.00000043 00000+0 73624-3 0 9991 2 25872 51.9381 285.9110 0013315 120.9289 358.7544 11.33860651144574 GLOBALSTAR M026 1 25873U 99041B 25340.71907116 -.00000025 00000+0 14459-2 0 9996 2 25873 51.9976 146.3383 0001912 157.2967 215.6661 11.06848580167598 GLOBALSTAR M043 1 25874U 99041C 25340.91460598 -.00000080 00000+0 -36170-3 0 9994 2 25874 51.9429 40.4431 0013474 243.1113 287.4462 11.25696226142323 GLOBALSTAR M028 1 25875U 99041D 25340.86869176 -.00000071 00000+0 19560-3 0 9997 2 25875 51.9644 38.1538 0063644 86.8175 273.9965 12.50592177211783 GLOBALSTAR M024 1 25883U 99043A 25340.73985418 -.00000125 00000+0 -21476-2 0 9991 2 25883 52.0045 351.2819 0001465 18.4717 153.3283 11.10167313134026 GLOBALSTAR M027 1 25884U 99043B 25340.92210170 -.00000128 00000+0 -24466-2 0 9994 2 25884 52.0224 73.7449 0020938 269.0359 90.8035 11.04372282160321 GLOBALSTAR M054 1 25885U 99043C 25340.79130944 -.00000056 00000+0 38234-3 0 9998 2 25885 52.0099 172.3710 0006015 108.2634 265.4531 11.39224650138722 GLOBALSTAR M053 1 25886U 99043D 25340.73454262 -.00000087 00000+0 -53435-3 0 9990 2 25886 51.9957 129.1736 0003623 36.5639 336.4197 11.27668965138918 GLOBALSTAR M058 1 25907U 99049A 25340.54058413 -.00000032 00000+0 70883-3 0 9992 2 25907 51.9967 8.9425 0001790 238.4096 121.6564 11.93206828562119 GLOBALSTAR M050 1 25908U 99049B 25340.83733613 -.00000016 00000+0 82055-3 0 9993 2 25908 52.0014 2.9273 0009049 16.9006 153.4708 12.07461898169049 GLOBALSTAR M033 1 25909U 99049C 25340.93288976 -.00000092 00000+0 -32242-5 0 9992 2 25909 51.9902 222.5668 0013181 261.1852 98.7503 12.20294034556839 GLOBALSTAR M055 1 25910U 99049D 25340.93848924 -.00000032 00000+0 52978-3 0 9998 2 25910 52.0007 224.8860 0007545 123.1614 236.9962 12.29437441189532 GLOBALSTAR M057 1 25943U 99058A 25340.95573550 -.00000011 00000+0 74105-3 0 9999 2 25943 51.9968 217.8853 0003104 24.2070 335.8925 12.24831047188105 GLOBALSTAR M059 1 25944U 99058B 25340.58718534 -.00000089 00000+0 -33519-4 0 9993 2 25944 52.0013 100.7691 0000692 111.9769 261.1716 11.99988119594741 GLOBALSTAR M056 1 25945U 99058C 25340.76150161 -.00000123 00000+0 -41000-3 0 9992 2 25945 51.9964 97.8338 0001624 144.3164 6.9073 12.04781641183422 GLOBALSTAR M031 1 25946U 99058D 25341.01261943 -.00000164 00000+0 -74126-3 0 9993 2 25946 51.9980 339.1265 0001258 165.1910 211.0758 12.16044297185574 GLOBALSTAR M039 1 25961U 99062A 25340.61871258 -.00000096 00000+0 42224-4 0 9994 2 25961 51.9840 103.5159 0002555 31.0838 329.0180 12.62338611201993 GLOBALSTAR M034 1 25962U 99062B 25340.82327596 -.00000013 00000+0 10857-2 0 9993 2 25962 51.9884 282.6318 0014821 9.3646 5.9482 11.79453437158764 GLOBALSTAR M029 1 25963U 99062C 25340.81140941 -.00000042 00000+0 54285-3 0 9996 2 25963 51.9826 348.0525 0002577 95.8150 75.3693 11.99903764189846 GLOBALSTAR M061 1 25964U 99062D 25340.62493314 -.00000104 00000+0 -38901-3 0 9998 2 25964 51.9787 109.4689 0004914 288.1930 85.2255 11.76778223141480 GLOBALSTAR M063 1 26081U 00008A 25340.84673543 -.00000005 00000+0 11408-2 0 9990 2 26081 51.9983 16.8447 0004391 283.3059 247.6196 11.86178707178064 GLOBALSTAR M062 1 26082U 00008B 25340.64578007 .00000010 00000+0 77072-3 0 9993 2 26082 51.9858 308.6281 0007241 117.3448 53.3733 12.43479704518072 GLOBALSTAR M060 1 26083U 00008C 25340.30041587 .00000070 00000+0 16006-2 0 9990 2 26083 52.0035 294.0029 0003490 104.5471 44.9029 12.17669875173337 GLOBALSTAR M064 1 26084U 00008D 25340.63128921 -.00000089 00000+0 -88045-4 0 9991 2 26084 52.0020 114.2068 0001939 63.0674 297.0357 11.88539358187607 GLOBALSTAR M065 1 31571U 07020A 25340.57550509 -.00000057 00000+0 26027-3 0 9998 2 31571 51.9908 61.5658 0009366 332.3606 136.4266 12.62015648855178 GLOBALSTAR M069 1 31573U 07020C 25340.65169186 -.00000114 00000+0 -19716-3 0 9998 2 31573 52.0040 77.0733 0002572 115.6493 32.7945 12.23464035855237 GLOBALSTAR M072 1 31574U 07020D 25340.97346139 -.00000048 00000+0 49290-3 0 9994 2 31574 51.9932 251.9714 0001089 344.2843 98.8956 11.91653903852060 GLOBALSTAR M071 1 31576U 07020F 25340.77477233 -.00000013 00000+0 77455-3 0 9990 2 31576 52.0052 107.2085 0001810 106.6277 45.5405 12.18262655515978 GLOBALSTAR M067 1 32263U 07048A 25340.90163082 -.00000045 00000+0 38979-3 0 9996 2 32263 51.9727 250.5508 0001666 20.9174 54.4686 12.40682614830925 GLOBALSTAR M070 1 32264U 07048B 25340.97651086 -.00000069 00000+0 19197-3 0 9997 2 32264 51.9767 322.1125 0000266 86.1290 291.4313 12.62326989835490 GLOBALSTAR M066 1 32265U 07048C 25339.98053561 -.00000085 00000+0 80077-4 0 9995 2 32265 51.9583 252.5532 0005425 7.3448 74.9337 12.30381684836441 GLOBALSTAR M068 1 32266U 07048D 25340.68471605 -.00000069 00000+0 19560-3 0 9998 2 32266 51.9864 136.4200 0001909 128.4592 244.8807 12.62834773839354 GLOBALSTAR M079 1 37188U 10054A 25340.74296435 -.00000089 00000+0 79728-4 0 9995 2 37188 52.0056 334.4993 0000304 6.8612 163.9349 12.62268963698241 GLOBALSTAR M074 1 37189U 10054B 25340.97343984 -.00000091 00000+0 72506-4 0 9993 2 37189 52.0034 333.0932 0000458 55.1582 323.2708 12.62263919698885 GLOBALSTAR M076 1 37190U 10054C 25340.91980595 -.00000088 00000+0 86315-4 0 9993 2 37190 52.0046 333.4446 0000492 33.3009 340.0542 12.62267826698596 GLOBALSTAR M077 1 37191U 10054D 25336.30079544 -.00000079 00000+0 35254-4 0 9991 2 37191 52.0116 319.4726 0017672 313.8474 152.6760 11.82670137698122 GLOBALSTAR M075 1 37192U 10054E 25340.88828428 -.00000076 00000+0 15462-3 0 9998 2 37192 51.9967 15.6990 0000346 110.2549 61.3464 12.62270263697654 GLOBALSTAR M073 1 37193U 10054F 25340.65116647 -.00000081 00000+0 12607-3 0 9991 2 37193 52.0068 290.3754 0000616 32.6355 138.8615 12.62264885699610 GLOBALSTAR M083 1 37739U 11033A 25340.88082148 -.00000057 00000+0 26344-3 0 9994 2 37739 51.9851 238.1682 0000782 55.8161 21.7369 12.62265360668666 GLOBALSTAR M088 1 37740U 11033B 25340.76125580 -.00000108 00000+0 -25269-4 0 9995 2 37740 52.0191 144.4922 0001099 102.7716 270.3590 12.62270990664190 GLOBALSTAR M091 1 37741U 11033C 25340.80789117 -.00000106 00000+0 -11193-4 0 9992 2 37741 51.9990 107.6003 0000830 121.8901 42.6522 12.62262386664989 GLOBALSTAR M085 1 37742U 11033D 25340.95431203 -.00000091 00000+0 73070-4 0 9993 2 37742 52.0145 58.2782 0000493 146.6931 24.2028 12.62267074665518 GLOBALSTAR M081 1 37743U 11033E 25340.65854935 -.00000094 00000+0 56721-4 0 9999 2 37743 51.9972 61.8323 0000438 120.7124 26.0390 12.62270637665625 GLOBALSTAR M089 1 37744U 11033F 25340.86162869 -.00000073 00000+0 16932-3 0 9997 2 37744 51.9954 15.4102 0000552 81.5408 89.2369 12.62261964666498 GLOBALSTAR M084 1 38040U 11080A 25340.93446647 -.00000059 00000+0 24904-3 0 9998 2 38040 52.0006 242.5699 0001130 61.3028 19.4537 12.62266359644489 GLOBALSTAR M080 1 38041U 11080B 25340.90535595 -.00000060 00000+0 24279-3 0 9994 2 38041 52.0055 244.3098 0000630 97.8547 340.5796 12.62264493644607 GLOBALSTAR M082 1 38042U 11080C 25340.90663905 -.00000065 00000+0 21364-3 0 9999 2 38042 52.0055 199.7869 0000836 96.3559 277.5080 12.62265995645314 GLOBALSTAR M092 1 38043U 11080D 25340.79983668 -.00000078 00000+0 14187-3 0 9997 2 38043 52.0095 290.4976 0000580 57.0674 310.7773 12.62268022643754 GLOBALSTAR M090 1 38044U 11080E 25340.85398863 -.00000072 00000+0 17678-3 0 9994 2 38044 52.0103 193.8413 0000876 78.2682 295.1717 12.62265243645421 GLOBALSTAR M086 1 38045U 11080F 25340.89834029 -.00000073 00000+0 17150-3 0 9994 2 38045 51.9876 193.9491 0001276 27.0379 77.3244 12.62280815645375 GLOBALSTAR M097 1 39072U 13005A 25340.66588531 -.00000121 00000+0 -96625-4 0 9993 2 39072 52.0038 109.3859 0000697 105.7004 254.3940 12.62267850592591 GLOBALSTAR M093 1 39073U 13005B 25340.63981334 -.00000109 00000+0 -30334-4 0 9990 2 39073 52.0099 102.7398 0000480 116.4609 243.6307 12.62270965592548 GLOBALSTAR M094 1 39074U 13005C 25340.48126817 -.00000081 00000+0 12652-3 0 9991 2 39074 51.9978 17.5319 0000103 135.1578 224.9298 12.62265149594130 GLOBALSTAR M096 1 39075U 13005D 25340.65271162 -.00000091 00000+0 70754-4 0 9994 2 39075 52.0085 65.6571 0000453 139.3945 220.6955 12.62269142593070 GLOBALSTAR M078 1 39076U 13005E 25340.86430397 -.00000114 00000+0 -58037-4 0 9992 2 39076 51.9845 149.2918 0001098 148.7333 211.3599 12.62272409591729 GLOBALSTAR M095 1 39077U 13005F 25340.73213632 -.00000112 00000+0 -46551-4 0 9996 2 39077 52.0055 147.0246 0000730 120.2363 239.8576 12.62267252591567 GLOBALSTAR M087 1 52888U 22064A 25340.58676614 -.00000076 00000+0 15462-3 0 9996 2 52888 52.0008 288.8150 0000397 38.3635 321.7260 12.62260976166811